Moriarty, NM

10:37 PM MDT on March 28, 2017 (GMT -0600)
Moriarty

Weather History for K0E0 - February, 2013

Change the Weather History Date:

Friday, February 1, 2013

  Actual Average (KABQ) Record (KABQ)
Temperature  
Mean Temperature 34 °F -  
Max Temperature 55 °F 49 °F 70 °F (1963)
Min Temperature 12 °F 24 °F -5 °F (1951)
Degree Days  
Heating Degree Days 32    
Moisture  
Dew Point 13 °F    
Average Humidity 46    
Maximum Humidity 86    
Minimum Humidity 15    
Precipitation  
Precipitation 0.00 in - - ()
Sea Level Pressure  
Sea Level Pressure 30.23 in    
Wind  
Wind Speed 7 mph (NW)    
Max Wind Speed 23 mph    
Max Gust Speed 31 mph    
Visibility 10 miles    
Events      
Averages and records for this station are not official NWS values.
T = Trace of Precipitation, MM = Missing Value Source: NWS Daily Summary

Daily Weather History Graph

Daily Weather History Graph

Search for Another Location

Airport or City:

Trip Planner

Search our weather history database for the weather conditions in past years. The results will help you decide how hot, cold, wet, or windy it might be!

Date:

Astronomy

Feb. 01, 2013 Rise Set
Actual Time 7:02 AM MST 5:33 PM MST
Civil Twilight 6:36 AM MST 5:59 PM MST
Nautical Twilight 6:05 AM MST 6:30 PM MST
Astronomical Twilight 5:35 AM MST 6:59 PM MST
Moon 11:26 PM MST (2/1) 9:53 AM MST (2/1)
Length of Visible Light 11h 23m
Length of Day
10h 30m
Waning Gibbous, 69% of the Moon is Illuminated
Feb 1
Waning Gibbous
Feb 3
Last Quarter
Feb 10
New
Feb 17
First Quarter
Feb 25
Full

Hourly Weather History & Observations

Time (MST) Temp. Windchill Dew Point Humidity Pressure Visibility Wind Dir Wind Speed Gust Speed Precip Events Conditions
12:15 AM 17.6 °F 12.3 °F 13.3 °F 83% 30.26 in 10.0 mi North 3.5 mph - N/A   Clear
12:35 AM 19.4 °F 14.3 °F 14.7 °F 82% 30.26 in 10.0 mi NNW 3.5 mph - N/A   Clear
1:15 AM 20.5 °F 14.0 °F 14.7 °F 78% 30.25 in 10.0 mi NW 4.6 mph - N/A   Clear
1:35 AM 18.7 °F 13.5 °F 14.0 °F 82% 30.25 in 10.0 mi NNW 3.5 mph - N/A   Clear
1:55 AM 17.6 °F 9.3 °F 13.3 °F 83% 30.26 in 10.0 mi NW 5.8 mph - N/A   Clear
2:15 AM 17.1 °F - 12.7 °F 83% 30.26 in 10.0 mi Calm Calm - N/A   Clear
2:35 AM 15.4 °F 9.8 °F 11.7 °F 85% 30.26 in 10.0 mi NE 3.5 mph - N/A   Clear
2:55 AM 16.7 °F 11.2 °F 11.8 °F 81% 30.27 in 10.0 mi South 3.5 mph - N/A   Clear
3:15 AM 17.8 °F 10.9 °F 13.5 °F 83% 30.26 in 10.0 mi South 4.6 mph - N/A   Clear
3:35 AM 15.4 °F - 11.3 °F 84% 30.25 in 10.0 mi Calm Calm - N/A   Clear
3:55 AM 16.3 °F - 11.7 °F 82% 30.25 in 10.0 mi Calm Calm - N/A   Clear
4:15 AM 15.1 °F - 10.4 °F 82% 30.24 in 10.0 mi Calm Calm - N/A   Clear
4:35 AM 12.9 °F 6.9 °F 9.3 °F 86% 30.24 in 10.0 mi North 3.5 mph - N/A   Clear
4:55 AM 13.3 °F 5.6 °F 9.9 °F 86% 30.23 in 10.0 mi NNE 4.6 mph - N/A   Clear
5:15 AM 14.0 °F - 9.9 °F 84% 30.23 in 10.0 mi Calm Calm - N/A   Clear
5:35 AM 13.6 °F - 9.9 °F 85% 30.23 in 10.0 mi Calm Calm - N/A   Clear
5:55 AM 14.2 °F 5.3 °F 10.6 °F 86% 30.22 in 10.0 mi ENE 5.8 mph - N/A   Clear
6:15 AM 17.1 °F - 13.5 °F 86% 30.22 in 10.0 mi Calm Calm - N/A   Clear
6:35 AM 17.6 °F - 10.9 °F 75% 30.23 in 10.0 mi Calm Calm - N/A   Clear
6:55 AM 14.2 °F - 10.8 °F 86% 30.23 in 10.0 mi Calm Calm - N/A   Clear
7:15 AM 14.0 °F 8.2 °F 10.0 °F 84% 30.23 in 10.0 mi NNE 3.5 mph - N/A   Clear
7:35 AM 15.8 °F 6.1 °F 10.9 °F 81% 30.23 in 10.0 mi North 6.9 mph - N/A   Clear
8:15 AM 30.6 °F 22.4 °F 22.8 °F 73% 30.23 in 10.0 mi WNW 9.2 mph - N/A   Clear
8:35 AM 38.1 °F 29.5 °F 20.1 °F 48% 30.23 in 10.0 mi WNW 15.0 mph 20.7 mph N/A   Clear
8:55 AM 39.6 °F 33.0 °F 20.5 °F 46% 30.23 in 10.0 mi WNW 10.4 mph - N/A   Clear
9:15 AM 41.5 °F 34.2 °F 18.5 °F 40% 30.24 in 10.0 mi West 13.8 mph 18.4 mph N/A   Clear
9:35 AM 42.6 °F 34.6 °F 17.8 °F 37% 30.24 in 10.0 mi West 17.3 mph - N/A   Clear
9:55 AM 43.9 °F 36.5 °F 16.7 °F 34% 30.24 in 10.0 mi WNW 16.1 mph - N/A   Clear
10:15 AM 44.8 °F 37.4 °F 16.9 °F 33% 30.25 in 10.0 mi WNW 17.3 mph - N/A   Clear
10:35 AM 45.7 °F 38.6 °F 17.1 °F 32% 30.25 in 10.0 mi NW 17.3 mph - N/A   Clear
10:55 AM 46.8 °F - 16.0 °F 29% 30.25 in 10.0 mi WNW 17.3 mph - N/A   Clear
11:15 AM 48.0 °F - 15.6 °F 27% 30.25 in 10.0 mi WNW 16.1 mph - N/A   Clear
11:35 AM 49.1 °F - 14.0 °F 25% 30.23 in 10.0 mi WNW 15.0 mph 24.2 mph N/A   Clear
11:55 AM 49.8 °F - 14.0 °F 24% 30.23 in 10.0 mi WNW 15.0 mph 21.9 mph N/A   Clear
12:15 PM 50.7 °F - 14.7 °F 24% 30.21 in 10.0 mi NW 13.8 mph - N/A   Clear
12:35 PM 51.1 °F - 14.2 °F 23% 30.19 in 10.0 mi WNW 16.1 mph 23.0 mph N/A   Clear
12:55 PM 51.8 °F - 14.9 °F 23% 30.18 in 10.0 mi WNW 13.8 mph - N/A   Clear
1:15 PM 52.9 °F - 13.5 °F 21% 30.17 in 10.0 mi NW 11.5 mph 19.6 mph N/A   Clear
1:35 PM 53.4 °F - 14.9 °F 22% 30.17 in 10.0 mi NW 4.6 mph - N/A   Clear
1:55 PM 54.7 °F - 11.7 °F 18% 30.16 in 10.0 mi NW 11.5 mph - N/A   Clear
2:15 PM 55.4 °F - 9.7 °F 16% 30.16 in 10.0 mi NW 17.3 mph 25.3 mph N/A   Clear
2:35 PM 55.4 °F - 8.6 °F 15% 30.16 in 10.0 mi NW 20.7 mph 25.3 mph N/A   Clear
2:55 PM 54.5 °F - 8.6 °F 16% 30.16 in 10.0 mi NW 23.0 mph 29.9 mph N/A   Clear
3:15 PM 53.6 °F - 8.6 °F 16% 30.16 in 10.0 mi NW 20.7 mph 31.1 mph N/A   Clear
3:35 PM 53.6 °F - 9.0 °F 17% 30.16 in 10.0 mi NW 20.7 mph 25.3 mph N/A   Clear
3:55 PM 53.2 °F - 10.8 °F 18% 30.17 in 10.0 mi NW 20.7 mph 28.8 mph N/A   Clear
4:15 PM 52.2 °F - 12.2 °F 20% 30.17 in 10.0 mi NW 16.1 mph - N/A   Clear
4:35 PM 51.3 °F - 16.0 °F 25% 30.18 in 10.0 mi West 10.4 mph - N/A   Clear
4:55 PM 50.0 °F - 16.0 °F 26% 30.18 in 10.0 mi WNW 9.2 mph - N/A   Clear
5:15 PM 47.1 °F - 14.9 °F 28% 30.18 in 10.0 mi WNW 9.2 mph - N/A   Clear
5:35 PM 42.8 °F 36.6 °F 14.4 °F 32% 30.18 in 10.0 mi WNW 11.5 mph - N/A   Clear
5:55 PM 44.6 °F 37.8 °F 10.6 °F 25% 30.19 in 10.0 mi WNW 15.0 mph - N/A   Clear
6:15 PM 45.7 °F 38.3 °F 7.7 °F 21% 30.19 in 10.0 mi WNW 18.4 mph 26.5 mph N/A   Clear
6:35 PM 43.9 °F 37.2 °F 6.8 °F 22% 30.20 in 10.0 mi WNW 13.8 mph - N/A   Clear
6:55 PM 41.9 °F 34.3 °F 8.1 °F 25% 30.21 in 10.0 mi West 15.0 mph - N/A   Clear
7:15 PM 41.9 °F 35.0 °F 10.6 °F 28% 30.22 in 10.0 mi West 12.7 mph - N/A   Clear
7:35 PM 41.0 °F 34.3 °F 12.2 °F 31% 30.23 in 10.0 mi WNW 11.5 mph - N/A   Clear
7:55 PM 38.3 °F 33.9 °F 12.0 °F 34% 30.23 in 10.0 mi NNE 5.8 mph - N/A   Clear
8:15 PM 40.1 °F 38.0 °F 12.4 °F 32% 30.23 in 10.0 mi NE 3.5 mph - N/A   Clear
8:35 PM 41.0 °F 36.4 °F 11.1 °F 29% 30.24 in 10.0 mi North 6.9 mph - N/A   Clear
8:55 PM 42.6 °F 37.8 °F 9.7 °F 26% 30.25 in 10.0 mi NNW 8.1 mph - N/A   Clear
9:15 PM 37.6 °F 30.0 °F 10.4 °F 33% 30.25 in 10.0 mi NNW 11.5 mph - N/A   Clear
9:35 PM 36.7 °F 28.4 °F 11.8 °F 36% 30.26 in 10.0 mi NNW 12.7 mph - N/A   Clear
9:55 PM 34.9 °F 26.6 °F 12.6 °F 40% 30.26 in 10.0 mi NW 11.5 mph - N/A   Clear
10:15 PM 34.7 °F 29.6 °F 10.9 °F 37% 30.27 in 10.0 mi NW 5.8 mph - N/A   Clear
10:35 PM 35.6 °F - 10.2 °F 35% 30.28 in 10.0 mi Calm Calm - N/A   Clear
10:55 PM 36.7 °F 34.1 °F 9.3 °F 32% 30.28 in 10.0 mi NNW 3.5 mph - N/A   Clear
11:15 PM 37.6 °F 31.6 °F 9.5 °F 31% 30.28 in 10.0 mi North 8.1 mph - N/A   Clear
11:35 PM 32.2 °F 25.0 °F 13.3 °F 46% 30.28 in 10.0 mi NNE 8.1 mph - N/A   Clear
11:55 PM 31.5 °F 24.2 °F 15.1 °F 51% 30.28 in 10.0 mi North 8.1 mph - N/A   Clear